PBO Station Position Time Series. Reference Frame : NAM14
Format Version,1.1.0
4-character ID,SEDR
Station name,SEDR_PNGA_WA1997
Begin Date, 1997-10-07
End Date, 2019-10-07
Release Date, 2019-10-08
Reference position, 48.5215575334 North Latitude, -122.2238483807 East Longitude, 29.84921 meters elevation,
Date, North (mm), East (mm), Vertical (mm), North Std. Deviation (mm), East Std. Deviation (mm),              Vertical Std. Deviation (mm), Quality,
1997-10-07,0.00, 0.00, 0.00, 2.57, 1.85, 8.48, repro,
1997-10-08,4.98, -0.89, 7.71, 8.95, 5.00, 24.53, repro,
1997-10-09,-0.49, -2.42, 10.89, 2.53, 1.84, 8.44, repro,
1997-10-10,-4.82, -0.54, 1.01, 2.52, 1.83, 8.41, repro,
1997-10-11,-2.87, 2.08, -1.18, 2.56, 1.86, 8.25, repro,
1997-10-12,-3.50, 1.28, -7.00, 2.56, 1.85, 8.30, repro,
1997-10-13,-1.43, -0.02, -14.27, 2.55, 1.85, 8.32, repro,
1997-10-14,-2.44, 0.55, -5.56, 2.62, 1.89, 8.52, repro,
1997-10-15,-1.81, 1.88, -10.76, 2.67, 1.91, 8.59, repro,
1997-10-16,-3.62, 1.48, -0.67, 2.64, 1.90, 8.72, repro,
1997-10-17,-2.94, 1.26, 1.52, 2.77, 1.99, 9.10, repro,
1997-10-18,-0.84, 0.58, -9.90, 2.64, 1.90, 8.38, repro,
1997-10-19,-1.00, 1.28, -6.76, 2.64, 1.91, 8.55, repro,
1997-10-20,-1.21, 1.47, -8.92, 2.72, 1.93, 8.68, repro,
1997-10-21,-2.38, 0.69, -4.44, 2.65, 1.95, 8.81, repro,
1997-10-22,-3.51, 1.12, -4.70, 2.66, 1.92, 8.71, repro,
1997-10-23,-0.09, -0.00, -1.90, 2.69, 1.89, 8.45, repro,
1997-10-24,-0.69, 1.06, -6.79, 2.68, 1.88, 8.51, repro,
1997-10-25,-1.44, 2.40, -8.99, 2.74, 1.88, 8.62, repro,
1997-10-26,-2.51, 0.21, -7.18, 2.64, 1.94, 8.66, repro,
1997-10-27,-1.91, -0.20, -3.50, 2.71, 1.96, 8.86, repro,
1997-10-28,-1.91, 0.83, -6.22, 2.67, 1.92, 8.62, repro,
1997-10-29,1.71, 0.24, 1.21, 2.70, 1.97, 8.98, repro,
1997-10-30,-2.14, -1.21, -5.14, 2.70, 1.95, 8.78, repro,
1997-10-31,-1.94, -0.55, 3.92, 2.66, 1.96, 8.77, repro,
1997-11-01,-3.38, 2.07, -8.67, 2.53, 1.84, 8.36, repro,
1997-11-02,-4.57, 0.79, -2.14, 2.61, 1.91, 8.85, repro,
1997-11-03,-3.34, -0.45, 4.52, 2.68, 1.91, 8.81, repro,
1997-11-04,-0.71, 0.80, -2.21, 2.78, 1.98, 8.84, repro,
1997-11-05,-3.35, 0.44, -5.96, 2.65, 1.90, 8.51, repro,
1997-11-06,-2.15, -0.73, 0.74, 3.10, 2.13, 9.63, repro,
1997-11-07,-0.94, 1.11, -1.68, 2.89, 2.08, 9.33, repro,
1997-11-08,-1.94, 0.69, -3.55, 2.56, 1.88, 8.28, repro,
1997-11-09,-0.19, 2.77, -1.24, 2.62, 1.93, 8.46, repro,
1997-11-10,-1.53, 0.10, -1.36, 2.60, 1.94, 8.87, repro,
1997-11-11,-0.64, 1.76, 6.20, 2.63, 1.96, 8.86, repro,
1997-11-12,1.37, -1.09, 4.70, 2.59, 1.90, 8.51, repro,
1997-11-13,-2.66, 2.38, 7.56, 2.58, 1.88, 8.40, repro,
1997-11-14,-3.51, 0.30, 1.44, 2.74, 1.94, 8.76, repro,
1997-11-15,-0.42, 0.09, -1.86, 2.73, 1.97, 8.64, repro,
1997-11-16,-5.36, 0.12, -0.81, 2.58, 1.85, 8.38, repro,
1997-11-17,0.44, 1.52, -1.82, 2.81, 2.05, 9.25, repro,
1997-11-18,-3.07, 1.44, 18.16, 2.77, 2.01, 9.23, repro,
1997-11-19,0.59, 2.06, 3.16, 2.75, 1.97, 8.98, repro,
1997-11-20,-3.07, -1.04, 7.48, 2.73, 1.97, 8.84, repro,
1997-11-21,-1.89, 0.63, 6.02, 3.06, 2.10, 9.41, repro,
1997-11-22,-7.26, 1.60, 10.47, 3.01, 2.11, 9.55, repro,
1997-11-23,1.88, 0.54, 15.91, 2.85, 2.05, 9.20, repro,
1997-11-24,-2.37, 1.68, 10.36, 2.83, 1.98, 9.09, repro,
1997-11-25,-3.37, 2.03, 7.02, 2.57, 1.88, 8.69, repro,
1997-11-26,-1.70, -0.20, 0.91, 2.79, 1.94, 8.83, repro,
1997-11-27,-3.12, -0.09, 12.22, 2.60, 1.88, 8.52, repro,
1997-11-28,-4.11, 0.92, 12.98, 2.58, 1.89, 8.82, repro,
1997-11-29,-0.18, 1.81, 3.79, 2.69, 1.92, 8.72, repro,
1997-11-30,-1.63, 0.51, 1.53, 2.50, 1.84, 8.25, repro,
1997-12-01,-2.27, 0.96, -2.90, 2.64, 1.88, 8.72, repro,
1997-12-02,-2.16, 1.15, 3.53, 2.53, 1.81, 8.34, repro,
1997-12-03,-2.62, 0.90, 3.27, 2.74, 1.95, 9.32, repro,
1997-12-04,-1.22, 1.42, -4.53, 2.58, 1.85, 8.66, repro,
1997-12-05,-1.03, 1.15, -9.10, 2.78, 1.94, 8.96, repro,
1997-12-06,-2.47, 1.10, -1.86, 2.68, 1.89, 8.68, repro,
1997-12-07,-0.79, 0.68, 2.55, 2.49, 1.80, 8.15, repro,
1997-12-08,-4.57, 1.85, 11.98, 2.61, 1.89, 8.54, repro,
1997-12-09,-3.20, 1.37, 1.38, 2.51, 1.80, 8.13, repro,
1997-12-10,-2.03, 0.84, -9.46, 2.72, 1.87, 8.76, repro,
1997-12-11,-2.52, 2.17, -12.39, 2.59, 1.85, 8.53, repro,
1997-12-12,-2.44, 1.17, -10.68, 2.52, 1.83, 8.33, repro,
1997-12-13,-3.85, 0.24, 0.36, 2.51, 1.80, 8.35, repro,
1997-12-14,-3.11, -2.09, 4.51, 2.53, 1.81, 8.44, repro,
1997-12-15,-1.45, -0.64, 0.35, 2.79, 1.97, 9.16, repro,
1997-12-16,-2.71, 0.61, 5.73, 2.63, 1.85, 8.62, repro,
1997-12-17,-3.72, 1.46, 6.13, 2.70, 1.88, 8.83, repro,
1997-12-18,-2.20, 1.32, -0.73, 2.69, 1.94, 8.45, repro,
1997-12-19,-3.25, 0.93, -2.76, 2.53, 1.85, 8.06, repro,
1997-12-20,-0.44, 3.24, 3.66, 2.60, 1.90, 8.33, repro,
1997-12-21,0.32, -0.05, -1.78, 2.52, 1.85, 8.21, repro,
1997-12-22,-2.14, 0.43, -13.59, 2.45, 1.82, 8.11, repro,
1997-12-23,-3.41, -0.36, -5.87, 2.57, 1.85, 8.39, repro,
1997-12-24,-2.33, -0.09, -3.05, 2.52, 1.81, 8.12, repro,
1997-12-25,-0.72, 2.03, -7.28, 2.63, 1.89, 8.35, repro,
1997-12-26,2.04, 1.41, -5.12, 2.59, 1.87, 8.14, repro,
1997-12-27,-2.27, -0.08, -7.09, 2.52, 1.85, 8.34, repro,
1997-12-28,-2.71, 1.45, -14.28, 2.64, 1.94, 8.65, repro,
1997-12-29,-1.32, 1.29, -0.61, 2.57, 1.91, 8.33, repro,
1997-12-30,0.62, 1.12, -4.51, 2.65, 2.05, 8.98, repro,
1997-12-31,1.89, 2.39, -2.41, 2.47, 1.83, 8.05, repro,
1998-01-01,-3.41, 1.63, -0.62, 2.55, 1.84, 8.19, repro,
1998-01-02,-0.73, 1.76, -4.74, 2.59, 1.89, 8.49, repro,
1998-01-03,-5.83, 3.50, -7.19, 2.51, 1.82, 8.17, repro,
1998-01-04,-0.73, 1.81, -3.25, 2.53, 1.84, 8.18, repro,
1998-01-05,-0.79, 0.55, -5.41, 2.58, 1.94, 8.64, repro,
1998-01-06,-0.26, 1.53, -7.54, 2.60, 1.98, 8.67, repro,
1998-01-07,0.24, 1.76, -16.02, 2.75, 2.09, 9.20, repro,
1998-01-08,-1.79, 2.20, -11.25, 2.69, 2.01, 9.03, repro,
1998-01-09,0.29, 1.77, -12.93, 2.62, 1.95, 8.65, repro,
1998-01-10,0.03, 2.98, -7.78, 2.53, 1.88, 8.28, repro,
1998-01-11,-1.29, 2.24, -7.77, 2.52, 1.90, 8.51, repro,
1998-01-12,-1.77, 2.13, -17.06, 2.64, 1.95, 8.75, repro,
1998-01-13,-0.54, 2.16, 1.44, 2.59, 1.91, 8.60, repro,
1998-01-14,0.20, 1.91, -4.61, 2.50, 1.85, 8.26, repro,
1998-01-15,-2.77, 0.98, -11.75, 2.58, 1.97, 8.59, repro,
1998-01-16,-0.92, -0.16, -3.25, 2.84, 2.16, 9.69, repro,
1998-01-17,1.45, 1.93, -3.04, 2.56, 1.90, 8.30, repro,
1998-01-18,1.53, 1.51, -4.10, 2.61, 1.92, 8.52, repro,
1998-01-19,-1.16, 2.92, -8.36, 2.56, 1.87, 8.27, repro,
1998-01-20,-0.17, 1.21, -14.78, 2.51, 1.81, 8.09, repro,
1998-01-21,0.37, 3.21, -6.72, 2.54, 1.85, 8.10, repro,
1998-01-22,-0.06, 2.14, -6.61, 2.55, 1.89, 8.28, repro,
1998-01-23,0.51, 3.25, -10.30, 2.65, 1.93, 8.61, repro,
1998-01-24,-0.17, 2.72, -2.49, 2.57, 1.85, 8.25, repro,
1998-01-25,-0.09, 2.82, -6.82, 2.52, 1.79, 8.01, repro,
1998-01-26,0.63, 1.25, -17.74, 2.54, 1.84, 8.13, repro,
1998-01-27,-0.84, 2.62, -8.71, 2.49, 1.83, 8.10, repro,
1998-01-28,0.16, 3.20, -6.97, 2.57, 1.84, 8.24, repro,
1998-01-29,-0.94, 2.55, -0.62, 2.63, 1.87, 8.49, repro,
1998-01-30,-0.39, 2.62, -16.15, 2.48, 1.85, 8.21, repro,
1998-01-31,-0.98, 3.04, -5.99, 2.43, 1.82, 7.92, repro,
1998-02-01,1.34, 1.67, 1.98, 2.50, 1.82, 8.08, repro,
1998-02-02,1.58, 3.07, -2.66, 2.42, 1.79, 7.88, repro,
1998-02-03,0.53, 2.02, -4.89, 2.40, 1.76, 7.80, repro,
1998-02-04,1.04, 2.98, -1.90, 2.50, 1.84, 8.06, repro,
1998-02-05,0.44, 2.42, -0.48, 2.60, 1.90, 8.39, repro,
1998-02-06,1.58, 2.15, 2.44, 2.40, 1.77, 7.82, repro,
1998-02-07,0.59, 1.48, -4.91, 2.43, 1.79, 7.87, repro,
1998-02-08,-0.32, 1.90, -4.86, 2.42, 1.80, 7.98, repro,
1998-02-09,-1.64, 2.18, -0.46, 2.54, 1.84, 8.24, repro,
1998-02-10,0.14, 2.57, -5.50, 2.49, 1.83, 8.08, repro,
1998-02-11,1.18, 1.88, -13.08, 2.53, 1.84, 8.59, repro,
1998-02-12,-0.96, 1.09, 0.86, 2.49, 1.81, 8.10, repro,
1998-02-13,0.81, 2.71, -11.61, 2.45, 1.83, 8.04, repro,
1998-02-14,0.48, 2.77, -5.48, 2.48, 1.84, 8.14, repro,
1998-02-15,0.08, 2.05, -8.69, 2.53, 1.87, 8.36, repro,
1998-02-16,-1.27, 3.57, -5.62, 2.48, 1.83, 8.08, repro,
1998-02-17,-0.94, 3.42, 4.35, 2.76, 1.98, 8.80, repro,
1998-02-18,2.90, 2.73, 3.07, 2.68, 1.99, 8.61, repro,
1998-02-19,0.19, 1.44, -4.30, 2.46, 1.84, 8.12, repro,
1998-02-20,-1.39, 3.35, -8.56, 2.62, 1.96, 8.67, repro,
1998-02-21,-0.98, 1.38, 3.96, 2.50, 1.87, 8.31, repro,
1998-02-22,-5.62, 0.96, -13.52, 2.55, 1.87, 8.32, repro,
1998-02-23,-2.68, 3.55, -3.77, 2.51, 1.84, 8.23, repro,
1998-02-24,-1.50, 2.87, -1.74, 2.50, 1.83, 8.25, repro,
1998-02-25,0.05, 2.66, -3.50, 2.38, 1.80, 7.92, repro,
1998-02-26,-2.42, 1.71, -12.03, 2.44, 1.86, 8.28, repro,
1998-02-27,1.61, 2.77, -15.84, 2.49, 1.85, 8.32, repro,
1998-02-28,1.91, 4.09, -17.32, 2.51, 1.87, 8.52, repro,
1998-03-01,-2.77, 4.20, -6.93, 2.59, 1.92, 8.85, repro,
1998-03-02,-0.23, 3.69, -9.54, 2.39, 1.79, 7.85, repro,
1998-03-03,-3.91, 3.42, -20.78, 2.50, 1.88, 8.33, repro,
1998-03-04,-2.56, 2.92, -12.60, 2.39, 1.75, 7.91, repro,
1998-03-05,-2.40, 2.96, -16.09, 2.46, 1.80, 8.05, repro,
1998-03-06,0.32, 4.87, -8.42, 2.37, 1.76, 7.72, repro,
1998-03-07,-1.12, 4.28, -6.87, 2.43, 1.82, 8.05, repro,
1998-03-08,-1.54, 5.82, -12.97, 2.45, 1.87, 8.20, repro,
1998-03-09,-0.51, 5.31, -13.06, 2.37, 1.76, 7.77, repro,
1998-03-10,-1.79, 6.22, -17.42, 2.52, 1.89, 8.31, repro,
1998-03-11,-1.31, 5.11, -19.23, 2.53, 1.87, 8.30, repro,
1998-03-12,0.21, 4.91, -0.46, 2.54, 1.85, 8.33, repro,
1998-03-13,-1.26, 4.03, -17.79, 2.53, 1.90, 8.35, repro,
1998-03-14,-4.20, 4.58, -13.37, 2.46, 1.86, 8.19, repro,
1998-03-15,-0.92, 4.64, -16.14, 2.51, 1.84, 8.13, repro,
1998-03-16,-0.02, 4.73, -18.42, 2.50, 1.81, 8.12, repro,
1998-03-17,0.67, 5.65, -12.29, 2.50, 1.84, 8.31, repro,
1998-03-18,-0.57, 4.99, -6.22, 2.45, 1.79, 8.00, repro,
1998-03-19,-2.34, 5.61, -10.07, 2.41, 1.80, 7.95, repro,
1998-03-20,-0.04, 5.18, -8.60, 2.47, 1.84, 8.09, repro,
1998-03-21,-0.42, 5.13, -13.49, 2.37, 1.77, 7.87, repro,
1998-03-22,-0.64, 4.85, -6.16, 2.43, 1.77, 7.91, repro,
1998-03-23,2.04, 4.96, -3.12, 2.47, 1.84, 8.17, repro,
1998-03-24,-1.20, 4.04, 0.57, 2.49, 1.87, 8.21, repro,
1998-03-25,-0.44, 4.51, -10.16, 2.39, 1.77, 7.89, repro,
1998-03-26,0.28, 4.15, -5.40, 2.43, 1.80, 8.00, repro,
1998-03-27,-1.54, 4.56, 3.93, 2.47, 1.81, 8.07, repro,
1998-03-28,-2.68, 4.64, -1.83, 2.50, 1.81, 8.10, repro,
1998-03-29,-0.47, 5.81, -4.74, 2.48, 1.81, 8.09, repro,
1998-03-30,-1.56, 3.97, -3.60, 2.53, 1.87, 8.40, repro,
1998-03-31,-0.55, 4.26, -15.18, 2.46, 1.83, 8.06, repro,
1998-04-01,-1.46, 5.29, -9.48, 2.43, 1.81, 8.00, repro,
1998-04-02,-0.78, 5.38, -11.13, 2.54, 1.86, 8.16, repro,
1998-04-03,-1.19, 5.65, -8.02, 2.45, 1.85, 8.11, repro,
1998-04-04,-1.90, 6.03, -1.53, 2.44, 1.81, 8.04, repro,
1998-04-05,-3.16, 3.48, -5.38, 2.43, 1.81, 7.99, repro,
1998-04-06,0.70, 5.58, -13.97, 2.51, 1.92, 8.40, repro,
1998-04-07,-0.43, 4.64, -12.41, 2.58, 1.96, 8.60, repro,
1998-04-08,-1.60, 6.13, -10.43, 2.56, 1.89, 8.37, repro,
1998-04-09,0.51, 5.31, -9.13, 2.40, 1.80, 7.89, repro,
1998-04-10,-1.87, 5.53, -13.87, 2.49, 1.89, 8.32, repro,
1998-04-11,-0.87, 3.12, -13.07, 2.49, 1.92, 8.45, repro,
1998-04-12,0.01, 4.84, -7.39, 2.53, 1.90, 8.35, repro,
1998-04-13,-1.06, 4.46, -7.32, 2.44, 1.83, 8.06, repro,
1998-04-14,-0.61, 4.48, -14.05, 2.36, 1.75, 7.82, repro,
1998-04-15,-0.64, 5.50, -17.23, 2.49, 1.80, 8.06, repro,
1998-04-16,0.40, 5.23, -8.31, 2.47, 1.84, 8.12, repro,
1998-04-17,-0.26, 5.81, -9.19, 2.50, 1.87, 8.27, repro,
1998-04-18,-0.07, 5.97, -9.60, 2.41, 1.79, 7.97, repro,
1998-04-19,-1.19, 4.55, -15.05, 2.37, 1.76, 7.86, repro,
1998-04-20,0.01, 5.31, -9.16, 2.40, 1.78, 7.97, repro,
1998-04-21,0.62, 5.90, -17.53, 2.44, 1.83, 8.01, repro,
1998-04-22,-1.64, 4.04, -7.54, 2.40, 1.79, 8.04, repro,
1998-04-23,-0.19, 5.74, 0.33, 2.42, 1.80, 8.05, repro,
1998-04-24,-0.49, 4.68, -12.58, 2.36, 1.75, 7.79, repro,
1998-04-25,-0.21, 3.93, 6.94, 2.35, 1.75, 7.72, repro,
1998-04-26,-0.01, 4.96, -3.61, 2.37, 1.75, 7.80, repro,
1998-04-27,0.33, 5.66, -13.84, 2.39, 1.77, 7.89, repro,
1998-04-28,-1.34, 5.40, -6.96, 2.42, 1.83, 8.20, repro,
1998-04-29,-0.37, 5.95, -5.37, 2.46, 1.79, 7.91, repro,
1998-04-30,-0.79, 5.00, -2.40, 2.33, 1.74, 7.74, repro,
1998-05-01,-0.97, 5.74, -6.46, 2.42, 1.79, 8.02, repro,
1998-05-02,-0.28, 4.94, 2.83, 2.42, 1.78, 7.97, repro,
1998-05-03,0.59, 4.41, 3.70, 2.45, 1.83, 8.15, repro,
1998-05-04,-3.02, 3.46, -7.04, 2.71, 1.97, 9.02, repro,
1998-05-05,-1.20, 3.75, -0.87, 2.43, 1.75, 7.91, repro,
1998-05-06,-0.84, 4.21, -2.90, 2.49, 1.84, 8.29, repro,
1998-05-07,0.54, 3.79, -3.29, 2.40, 1.78, 7.85, repro,
1998-05-08,0.72, 3.57, 5.60, 2.44, 1.80, 8.04, repro,
1998-05-09,-0.57, 3.10, 0.28, 2.38, 1.77, 7.98, repro,
1998-05-10,-1.60, 4.97, 2.76, 2.37, 1.76, 7.86, repro,
1998-05-11,-0.90, 3.82, 0.03, 2.39, 1.75, 7.80, repro,
1998-05-12,-0.10, 4.53, 7.87, 2.39, 1.77, 7.94, repro,
1998-05-13,-0.81, 4.61, 5.67, 2.38, 1.75, 7.84, repro,
1998-05-14,-1.46, 4.61, 4.65, 2.40, 1.78, 7.98, repro,
1998-05-15,-1.51, 4.08, 2.05, 2.35, 1.77, 7.85, repro,
1998-05-16,-0.69, 3.32, -3.22, 2.43, 1.78, 8.07, repro,
1998-05-17,-1.57, 4.57, -1.26, 2.41, 1.75, 7.87, repro,
1998-05-18,-0.14, 5.09, 0.54, 2.47, 1.81, 8.27, repro,
1998-05-19,0.28, 4.81, -4.60, 2.42, 1.80, 8.13, repro,
1998-05-20,-0.46, 4.69, -6.58, 2.41, 1.78, 8.08, repro,
1998-05-21,0.80, 5.37, 4.82, 2.38, 1.76, 7.97, repro,
1998-05-22,-1.19, 4.80, 2.00, 2.48, 1.80, 8.10, repro,
1998-05-23,1.05, 5.66, -3.35, 2.51, 1.86, 8.25, repro,
1998-05-24,0.86, 4.81, -9.09, 2.43, 1.77, 7.98, repro,
1998-05-25,-0.37, 4.21, -3.26, 2.41, 1.78, 8.01, repro,
1998-05-26,1.01, 4.88, -5.05, 2.46, 1.83, 8.20, repro,
1998-05-27,-2.34, 4.65, 0.15, 2.48, 1.82, 8.17, repro,
1998-05-28,0.15, 4.32, -4.34, 2.48, 1.83, 8.21, repro,
1998-05-29,-0.75, 5.34, -12.67, 2.51, 1.83, 8.25, repro,
1998-05-30,1.17, 5.65, -1.14, 2.43, 1.81, 8.01, repro,
1998-05-31,-1.24, 5.99, -4.48, 2.40, 1.78, 7.96, repro,
1998-06-01,-1.13, 5.70, -0.33, 2.42, 1.79, 7.97, repro,
1998-06-02,-0.49, 5.07, 1.02, 2.43, 1.82, 8.08, repro,
1998-06-03,-0.38, 5.45, -2.59, 2.41, 1.78, 7.89, repro,
1998-06-04,-2.05, 3.76, -3.70, 2.36, 1.77, 7.88, repro,
1998-06-05,-1.68, 5.54, -0.63, 2.42, 1.83, 8.21, repro,
1998-06-06,0.83, 6.05, -11.74, 2.44, 1.78, 8.05, repro,
1998-06-07,-1.42, 6.19, -5.75, 2.44, 1.81, 8.10, repro,
1998-06-08,-1.58, 5.11, 2.95, 2.57, 1.87, 8.40, repro,
1998-06-09,-0.61, 5.32, 2.36, 2.42, 1.77, 7.92, repro,
1998-06-10,-0.94, 6.22, 5.68, 2.51, 1.87, 8.24, repro,
1998-06-11,-2.39, 5.51, -2.68, 2.41, 1.79, 7.94, repro,
1998-06-12,-2.64, 4.59, 0.57, 2.42, 1.77, 7.90, repro,
1998-06-13,-1.22, 5.38, -0.02, 2.40, 1.80, 8.03, repro,
1998-06-14,-1.29, 4.05, 4.38, 2.43, 1.79, 7.93, repro,
1998-06-15,-0.42, 6.47, 3.85, 2.41, 1.82, 8.06, repro,
1998-06-16,-2.03, 4.90, -2.45, 2.48, 1.89, 8.54, repro,
1998-06-17,-1.08, 4.99, -1.74, 2.40, 1.79, 7.91, repro,
1998-06-18,-2.16, 4.83, 3.26, 2.44, 1.80, 8.01, repro,
1998-06-19,-1.81, 4.86, 2.53, 2.39, 1.78, 7.94, repro,
1998-06-20,-1.84, 4.93, -8.72, 2.40, 1.76, 7.83, repro,
1998-06-21,-1.51, 5.54, -2.35, 2.40, 1.79, 7.96, repro,
1998-06-22,-1.18, 5.94, -0.65, 2.48, 1.80, 8.13, repro,
1998-06-23,-0.65, 4.05, 8.46, 2.51, 1.85, 8.44, repro,
1998-06-24,-1.86, 5.21, 12.90, 2.50, 1.82, 8.10, repro,
1998-06-25,-0.23, 4.25, 6.17, 2.54, 1.87, 8.21, repro,
1998-06-26,-1.45, 4.81, 3.64, 2.41, 1.82, 7.95, repro,
1998-06-27,-0.10, 5.44, 2.67, 2.47, 1.85, 8.28, repro,
1998-06-28,-1.41, 4.38, -2.60, 2.50, 1.82, 8.25, repro,
1998-06-29,-1.88, 5.93, -3.43, 2.49, 1.89, 8.32, repro,
1998-06-30,-1.20, 4.48, 1.90, 2.39, 1.80, 7.93, repro,
1998-07-01,0.05, 4.15, 4.97, 2.47, 1.81, 8.16, repro,
1998-07-02,-0.09, 3.99, -4.28, 2.39, 1.78, 7.95, repro,
1998-07-03,-1.07, 4.76, 6.37, 2.44, 1.83, 8.25, repro,
1998-07-04,-3.15, 4.20, 6.92, 2.44, 1.82, 8.14, repro,
1998-07-05,-1.27, 3.67, 0.68, 2.44, 1.82, 8.14, repro,
1998-07-06,-1.51, 2.78, 4.63, 2.48, 1.83, 8.31, repro,
1998-07-07,-0.86, 3.04, -9.65, 2.50, 1.86, 8.38, repro,
1998-07-08,-1.19, 3.74, 0.68, 2.48, 1.83, 8.29, repro,
1998-07-09,-1.64, 3.22, 3.52, 2.54, 1.86, 8.55, repro,
1998-07-10,-3.26, 2.92, 6.20, 2.51, 1.87, 8.42, repro,
1998-07-11,-2.29, 1.07, 9.00, 2.46, 1.82, 8.25, repro,
1998-07-12,-0.85, 1.67, -2.05, 2.44, 1.80, 8.21, repro,
1998-07-13,-1.94, 1.73, -0.38, 2.39, 1.80, 8.07, repro,
1998-07-14,-2.78, 2.03, 1.11, 2.43, 1.82, 8.26, repro,
1998-07-15,-2.81, 1.85, 2.77, 2.40, 1.80, 8.12, repro,
1998-07-16,-0.95, 2.46, 1.53, 2.47, 1.82, 8.23, repro,
1998-07-17,-3.47, 2.01, -0.89, 2.46, 1.81, 8.22, repro,
1998-07-18,-2.19, 1.62, -1.05, 2.45, 1.79, 8.08, repro,
1998-07-19,-2.92, 1.53, 8.22, 2.43, 1.80, 8.13, repro,
1998-07-20,-2.26, 1.68, -0.86, 2.45, 1.78, 8.06, repro,
1998-07-21,0.40, 1.90, 7.10, 2.39, 1.76, 7.94, repro,
1998-07-22,-1.23, 2.03, -8.30, 2.54, 1.86, 8.47, repro,
1998-07-23,-0.48, 1.11, 0.08, 2.55, 1.85, 8.38, repro,
1998-07-24,-0.32, 1.26, 1.35, 2.46, 1.83, 8.28, repro,
1998-07-25,-1.36, 2.98, -2.34, 2.39, 1.79, 8.06, repro,
1998-07-26,-0.54, 1.36, -3.58, 2.40, 1.77, 7.95, repro,
1998-07-27,-0.63, 0.60, 5.72, 2.50, 1.80, 8.30, repro,
1998-07-28,-4.59, -0.73, -3.68, 2.47, 1.83, 8.32, repro,
1998-07-29,0.74, 1.26, -6.26, 2.45, 1.77, 8.05, repro,
1998-07-30,-3.58, 2.18, 1.07, 2.41, 1.82, 8.11, repro,
1998-07-31,-2.07, 0.11, 8.69, 2.50, 1.90, 8.58, repro,
1998-08-01,-0.36, 1.87, 1.86, 2.40, 1.81, 8.04, repro,
1998-08-02,-3.32, 1.70, -3.96, 2.44, 1.78, 8.08, repro,
1998-08-03,-1.87, 3.06, -5.77, 2.45, 1.79, 8.09, repro,
1998-08-04,-1.15, 3.12, -2.87, 2.48, 1.86, 8.28, repro,
1998-08-05,-3.50, 1.38, -1.46, 2.41, 1.80, 8.11, repro,
1998-08-06,-3.12, 1.47, 0.78, 2.44, 1.79, 7.95, repro,
1998-08-07,-2.86, 0.80, 1.78, 2.37, 1.75, 7.79, repro,
1998-08-08,-1.79, 1.00, 5.49, 2.41, 1.77, 7.99, repro,
1998-08-09,-4.68, 2.09, 5.29, 2.38, 1.76, 7.87, repro,
1998-08-10,-0.65, 1.25, 3.10, 2.44, 1.80, 8.10, repro,
1998-08-11,-4.14, 3.00, 6.91, 2.37, 1.75, 7.78, repro,
1998-08-12,-2.38, 0.81, 1.56, 2.35, 1.75, 7.78, repro,
1998-08-13,-2.00, 1.52, -15.69, 2.37, 1.73, 7.83, repro,
1998-08-14,-1.31, 1.52, 1.66, 2.39, 1.75, 7.87, repro,
1998-08-15,-2.07, 3.87, 8.35, 2.38, 1.79, 7.99, repro,
1998-08-16,-3.19, 2.48, 4.20, 2.50, 1.84, 8.24, repro,
1998-08-17,-1.52, 1.77, -1.29, 2.35, 1.74, 7.76, repro,
1998-08-18,-1.43, 2.69, -3.86, 2.39, 1.77, 7.90, repro,
1998-08-19,-1.45, 2.83, 3.19, 2.39, 1.74, 7.86, repro,
1998-08-20,-1.84, 2.35, 4.56, 2.38, 1.78, 7.86, repro,
1998-08-21,-3.22, 2.59, 3.86, 2.35, 1.78, 7.86, repro,
1998-08-22,-1.84, 1.59, -4.56, 2.41, 1.81, 8.01, repro,
1998-08-23,-3.18, 1.87, 10.04, 2.34, 1.74, 7.74, repro,
1998-08-24,-2.36, 1.60, 4.33, 2.49, 1.85, 8.10, repro,
1998-08-25,-2.83, 2.74, 0.45, 2.38, 1.77, 7.90, repro,
1998-08-26,-3.23, 2.23, 1.66, 2.40, 1.78, 7.90, repro,
1998-08-27,-2.90, 2.76, 4.55, 2.44, 1.84, 8.22, repro,
1998-08-28,-2.62, 1.77, 3.42, 2.32, 1.73, 7.72, repro,
1998-08-29,-0.82, 2.71, -0.15, 2.39, 1.76, 7.83, repro,
1998-08-30,-2.02, 1.66, 1.56, 2.37, 1.75, 7.80, repro,
1998-08-31,-2.18, 1.56, -2.14, 2.36, 1.77, 7.85, repro,
1998-09-01,-4.10, 1.31, 4.67, 2.45, 1.79, 8.08, repro,
1998-09-02,-2.75, 3.22, 5.05, 2.37, 1.75, 7.81, repro,
1998-09-03,-2.55, 1.07, 8.81, 2.38, 1.74, 7.80, repro,
1998-09-04,-0.39, 0.64, 9.84, 2.43, 1.79, 7.96, repro,
1998-09-05,-4.22, 1.72, -10.58, 2.37, 1.74, 7.82, repro,
1998-09-06,-2.38, 3.15, 6.14, 2.37, 1.76, 7.82, repro,
1998-09-07,-3.11, 1.79, 14.63, 2.39, 1.80, 8.01, repro,
1998-09-08,-4.11, 0.77, 16.25, 2.42, 1.81, 8.07, repro,
1998-09-09,-2.63, 2.20, 14.73, 2.48, 1.84, 8.26, repro,
1998-09-10,-3.09, 2.59, 14.67, 2.37, 1.77, 7.81, repro,
1998-09-11,-4.21, 1.41, 8.66, 2.45, 1.79, 8.03, repro,
1998-09-12,-2.99, 2.21, -0.05, 2.35, 1.75, 7.81, repro,
1998-09-13,-1.32, 1.75, 1.59, 2.38, 1.75, 7.76, repro,
1998-09-14,-3.04, 1.56, 9.03, 2.53, 1.85, 8.18, repro,
1998-09-15,-2.18, 2.17, 5.47, 2.47, 1.83, 8.02, repro,
1998-09-16,-3.45, 2.49, 10.27, 2.49, 1.89, 8.18, repro,
1998-09-17,-3.42, 1.67, 10.39, 2.51, 1.88, 8.17, repro,
1998-09-18,-3.42, 1.04, 8.79, 2.53, 1.86, 8.18, repro,
1998-09-19,-2.36, 3.29, 11.33, 2.42, 1.82, 7.89, repro,
1998-09-20,-2.87, 2.22, 7.55, 2.46, 1.83, 7.98, repro,
1998-09-21,-3.51, 1.86, 3.92, 2.44, 1.80, 7.85, repro,
1998-09-22,-2.64, 1.78, -4.51, 2.46, 1.81, 8.27, repro,
1998-09-23,-3.06, 2.03, -1.16, 2.61, 1.93, 8.59, repro,
1998-09-24,-0.20, 1.88, 8.40, 2.43, 1.79, 8.12, repro,
1998-09-25,-2.02, 1.90, 12.78, 2.91, 2.08, 9.56, repro,
1998-09-26,-2.18, 0.78, 6.22, 2.57, 1.85, 8.06, repro,
1998-09-27,-1.36, 2.67, 0.92, 2.50, 1.83, 7.99, repro,
1998-09-28,-2.63, 2.67, 5.68, 2.55, 1.89, 8.13, repro,
1998-09-29,-2.19, 2.57, -5.17, 2.45, 1.78, 8.02, repro,
1998-09-30,-2.83, 2.71, 4.13, 2.41, 1.76, 7.87, repro,
1998-10-01,-1.23, 3.36, 0.08, 2.43, 1.77, 7.95, repro,
1998-10-02,-1.41, 2.56, 9.39, 2.43, 1.77, 7.84, repro,
1998-10-03,-2.00, 3.25, 4.95, 2.76, 2.07, 8.88, repro,
1998-10-04,-4.83, 2.81, 4.34, 2.66, 1.94, 8.40, repro,
1998-10-05,-2.98, 2.16, 16.42, 2.52, 1.86, 8.20, repro,
1998-10-06,-3.96, 2.33, 15.01, 2.44, 1.81, 7.89, repro,
1998-10-07,-3.08, 1.76, 4.39, 2.56, 1.91, 8.24, repro,
1998-10-08,-3.30, 0.22, 12.44, 2.63, 1.99, 8.47, repro,
1998-10-09,-2.95, 1.81, 2.64, 2.65, 1.96, 8.58, repro,
1998-10-10,-1.56, 2.80, 1.78, 2.52, 1.94, 8.22, repro,
1998-10-11,-2.94, 2.06, 1.91, 2.61, 1.94, 8.34, repro,
1998-10-12,-0.91, 3.32, 11.06, 2.67, 2.01, 8.56, repro,
1998-10-13,-1.03, 2.24, 5.00, 2.64, 1.99, 8.40, repro,
1998-10-14,-2.68, 3.46, -0.72, 2.59, 1.91, 8.30, repro,
1998-10-15,-3.79, 2.36, 2.98, 2.60, 1.90, 8.17, repro,
1998-10-16,-1.03, 4.62, -13.52, 2.54, 1.91, 8.28, repro,
1998-10-17,-0.27, 2.68, 1.65, 2.55, 1.90, 8.26, repro,
1998-10-18,-0.91, 2.80, -4.50, 2.60, 1.97, 8.58, repro,
1998-10-19,-1.96, 2.26, -20.25, 2.66, 2.02, 8.86, repro,
1998-10-20,-2.11, 2.64, -5.02, 2.48, 1.88, 8.10, repro,
1998-10-21,-1.20, 1.57, -2.24, 2.57, 1.95, 8.40, repro,
1998-10-22,-1.87, 3.78, -3.38, 2.59, 1.94, 8.40, repro,
1998-10-23,-1.33, 3.59, -6.41, 2.63, 1.93, 8.40, repro,
1998-10-24,-0.33, 3.22, -4.19, 2.65, 2.00, 8.61, repro,
1998-10-25,-3.44, 1.33, 4.27, 2.44, 1.86, 7.99, repro,
1998-10-26,-2.93, 1.32, 6.67, 2.62, 2.01, 8.50, repro,
1998-10-27,-0.00, 1.51, 1.57, 2.50, 1.91, 8.24, repro,
1998-10-28,-5.72, 0.14, 5.18, 2.56, 1.97, 8.45, repro,
1998-10-29,-1.74, 2.43, 3.50, 2.46, 1.88, 8.12, repro,
1998-10-30,-1.17, 2.65, -2.84, 2.45, 1.87, 8.10, repro,
1998-10-31,-1.42, 2.55, 7.66, 2.49, 1.84, 8.12, repro,
1998-11-01,-1.01, 1.00, -8.22, 2.54, 1.90, 8.22, repro,
1998-11-02,0.36, 2.82, 3.76, 2.52, 1.84, 8.27, repro,
1998-11-03,-1.09, 1.89, -11.37, 2.70, 1.99, 8.70, repro,
1998-11-04,-5.81, 4.19, 4.17, 2.54, 1.95, 8.65, repro,
1998-11-05,-3.57, 3.20, 5.21, 2.63, 2.03, 8.76, repro,
1998-11-06,-2.11, 2.15, 3.60, 2.53, 1.93, 8.48, repro,
1998-11-07,-1.08, 1.18, -4.11, 2.48, 1.83, 8.23, repro,
1998-11-08,-1.30, 3.93, -5.38, 2.60, 2.02, 8.70, repro,
1998-11-09,-1.17, 2.67, -5.28, 2.56, 1.93, 8.64, repro,
1998-11-10,-2.28, 2.72, 1.88, 2.48, 1.86, 8.22, repro,
1998-11-11,-0.93, 1.59, -6.53, 2.49, 1.88, 8.34, repro,
1998-11-12,-2.25, 2.74, 6.67, 2.55, 1.86, 8.23, repro,
1998-11-13,-0.93, 1.43, 14.41, 2.61, 1.92, 8.79, repro,
1998-11-14,0.77, 2.64, 6.12, 2.52, 1.86, 8.28, repro,
1998-11-15,-2.21, 3.34, 18.35, 2.54, 1.86, 8.38, repro,
1998-11-16,-1.18, 4.39, 4.17, 2.49, 1.83, 8.15, repro,
1998-11-17,-0.54, 3.08, -8.26, 2.57, 1.85, 8.36, repro,
1998-11-18,0.07, 3.94, -1.67, 2.40, 1.76, 7.86, repro,
1998-11-19,-0.86, 4.47, -1.91, 2.46, 1.81, 8.07, repro,
1998-11-20,-2.29, 2.72, 12.16, 2.42, 1.78, 7.93, repro,
1998-11-21,-3.23, 3.93, 22.55, 2.59, 1.88, 8.34, repro,
1998-11-22,-1.31, 1.22, 1.96, 2.49, 1.80, 7.94, repro,
1998-11-23,2.16, 3.67, 7.53, 2.48, 1.81, 8.15, repro,
1998-11-24,-3.34, 3.34, 1.30, 2.39, 1.75, 7.83, repro,
1998-11-25,-0.95, 2.05, 13.63, 2.37, 1.75, 7.79, repro,
1998-11-26,-2.52, 2.23, -1.20, 2.41, 1.75, 7.83, repro,
1998-11-27,-1.25, 4.74, 4.20, 2.42, 1.78, 7.90, repro,
1998-11-28,-0.28, 1.78, -3.73, 2.47, 1.81, 8.04, repro,
1998-11-29,-0.78, 1.64, 1.02, 2.50, 1.80, 8.10, repro,
1998-11-30,-2.02, 1.67, 4.92, 2.47, 1.81, 8.18, repro,
1998-12-01,-1.11, 1.79, 0.84, 2.54, 1.88, 8.32, repro,
1998-12-02,-3.50, 2.46, 7.25, 2.46, 1.81, 8.04, repro,
1998-12-03,-1.47, 2.50, -1.95, 2.41, 1.79, 7.97, repro,